Date String (YYYY-MM-DD hh:mm:ss) UTC,Instrument flags,absolute air pressure of the measurement (hPa),sample flow rate (lpm),inlet stack bypass flow (lpm),air temperature of the measurement (°C),ambient temperature measured by the external sensor (°C),aerosol sample conditioner tube jacket temperature (°C),OPC LED temperature (°C),internal box temperature (°C),relative humidity of the measurement (%),span deviation,mass concentration of particles derived from Lorenz-Mie calculation of OPC scattering (μg/m³),mass concentration of particles derived from Lorenz-Mie calculation of OPC scattering (μg/m³),mass concentration of particles derived from Lorenz-Mie calculation of OPC scattering (μg/m³)
DateTimeUTC,F1_M11,P_M11,Q1_M11,Q2_M11,T1_M11,T2_M11,T3_M11,T4_M11,T5_M11,U1_M11,ZSPAN_M11,X0_M11,X2_M11,X1_M11
2023-10-20 03:00:00,SystemResetWarning,0833.9,5.00,000.00,028.3,026.8,000.0,036.8,030.0,11.2,0000.0,0008.42,0001.18,0000.66
2023-10-20 03:01:00,SystemResetWarning,0833.9,5.00,000.00,028.3,026.9,000.0,036.8,030.1,11.2,0000.0,0008.28,0001.19,0000.65
2023-10-20 03:02:00,SystemResetWarning,0833.8,4.98,000.00,028.3,027.0,000.0,036.8,030.1,11.1,0000.0,0007.62,0001.15,0000.64
2023-10-20 03:03:00,SystemResetWarning,0833.9,5.00,000.00,028.4,027.1,000.0,036.8,030.2,11.0,0000.0,0007.03,0001.10,0000.63
2023-10-20 03:04:00,SystemResetWarning,0833.9,5.01,000.00,028.4,027.2,000.0,036.8,030.2,10.9,0000.0,0006.77,0001.06,0000.63
2023-10-20 03:05:00,SystemResetWarning,0833.9,5.00,000.00,028.4,027.3,000.0,036.8,030.2,11.0,0000.0,0006.87,0001.04,0000.62
2023-10-20 03:06:00,SystemResetWarning,0833.9,4.99,000.00,028.5,027.4,000.0,036.9,030.3,11.1,0000.0,0006.74,0001.03,0000.62
2023-10-20 03:07:00,SystemResetWarning,0833.9,5.01,000.00,028.5,027.4,000.0,036.9,030.3,11.1,0000.0,0005.67,0001.03,0000.62
2023-10-20 03:08:00,SystemResetWarning,0834.0,5.00,000.00,028.5,027.5,000.0,036.9,030.3,11.0,0000.0,0004.46,0001.04,0000.62
2023-10-20 03:09:00,SystemResetWarning,0834.0,5.00,000.00,028.6,027.6,000.0,036.9,030.4,11.0,0000.0,0004.33,0000.99,0000.61
2023-10-20 03:10:00,SystemResetWarning,0834.0,5.00,000.00,028.6,027.6,000.0,036.9,030.4,10.9,0000.0,0004.06,0000.99,0000.61
2023-10-20 03:11:00,SystemResetWarning,0834.0,4.99,000.00,028.6,026.4,000.0,036.9,030.4,11.1,0000.0,0004.30,0001.00,0000.61
2023-10-20 03:12:00,SystemResetWarning,0833.9,5.01,000.00,028.6,024.8,000.0,036.9,030.2,11.1,0000.0,0004.22,0000.96,0000.61
2023-10-20 03:13:00,SystemResetWarning,0833.9,5.01,000.00,028.5,024.5,000.0,036.8,030.0,11.1,0000.0,0004.17,0000.95,0000.62
2023-10-20 03:14:00,SystemResetWarning,0833.8,5.00,000.00,028.4,024.8,000.0,036.8,029.8,11.3,0000.0,0004.10,0000.91,0000.62
2023-10-20 03:15:00,SystemResetWarning,0833.9,5.00,000.00,028.3,025.1,000.0,036.8,029.8,11.5,0000.0,0004.38,0000.94,0000.61
2023-10-20 03:16:00,SystemResetWarning,0833.9,5.00,000.00,028.3,025.5,000.0,036.8,029.8,12.8,0000.0,0004.60,0000.97,0000.61
2023-10-20 03:17:00,SystemResetWarning,0833.9,5.00,000.00,028.3,025.8,000.0,036.8,029.9,12.9,0000.0,0004.01,0000.98,0000.62
2023-10-20 03:18:00,SystemResetWarning,0834.0,5.00,000.00,028.3,026.1,000.0,036.8,029.9,12.8,0000.0,0004.54,0001.03,0000.62
2023-10-20 03:19:00,SystemResetWarning,0834.0,5.00,000.00,028.3,026.4,000.0,036.8,030.0,12.8,0000.0,0004.69,0000.99,0000.62
2023-10-20 03:20:00,SystemResetWarning,0834.0,5.00,000.00,028.3,026.6,000.0,036.8,030.0,12.8,0000.0,0004.75,0000.99,0000.62
2023-10-20 03:21:00,SystemResetWarning,0834.0,5.01,000.00,028.3,026.8,000.0,036.8,030.1,12.8,0000.0,0004.93,0001.03,0000.63
2023-10-20 03:22:00,SystemResetWarning,0834.0,5.00,000.00,028.3,026.9,000.0,036.8,030.1,12.8,0000.0,0004.83,0001.07,0000.63
2023-10-20 03:23:00,SystemResetWarning,0834.0,4.99,000.00,028.4,027.0,000.0,036.8,030.2,12.7,0000.0,0004.93,0001.08,0000.62
2023-10-20 03:24:00,SystemResetWarning,0834.0,4.99,000.00,028.4,027.1,000.0,036.8,030.2,12.7,0000.0,0004.99,0001.08,0000.62
2023-10-20 03:25:00,SystemResetWarning,0834.0,5.00,000.00,028.4,027.2,000.0,036.9,030.2,12.7,0000.0,0005.06,0001.08,0000.61
2023-10-20 03:26:00,SystemResetWarning,0834.0,5.00,000.00,028.5,027.3,000.0,036.9,030.2,12.7,0000.0,0005.17,0001.09,0000.61
2023-10-20 03:27:00,SystemResetWarning,0834.0,5.00,000.00,028.5,027.4,000.0,036.9,030.3,12.4,0000.0,0004.88,0001.07,0000.60
2023-10-20 03:28:00,SystemResetWarning,0833.9,5.00,000.00,028.5,027.5,000.0,036.9,030.3,12.0,0000.0,0005.33,0001.09,0000.60
2023-10-20 03:29:00,SystemResetWarning,0833.9,5.00,000.00,028.6,027.5,000.0,036.9,030.4,12.1,0000.0,0004.96,0001.06,0000.60
2023-10-20 03:30:00,SystemResetWarning,0834.0,5.00,000.00,028.6,027.6,000.0,036.9,030.4,12.3,0000.0,0003.61,0001.06,0000.61
2023-10-20 03:31:00,SystemResetWarning,0834.0,5.00,000.00,028.7,027.6,000.0,037.0,030.4,12.2,0000.0,0003.37,0001.05,0000.61
2023-10-20 03:32:00,SystemResetWarning,0834.0,4.99,000.00,028.7,027.6,000.0,037.0,030.5,12.1,0000.0,0003.34,0001.02,0000.60
2023-10-20 03:33:00,SystemResetWarning,0834.0,4.99,000.00,028.7,026.3,000.0,037.0,030.4,12.0,0000.0,0004.37,0001.00,0000.61
2023-10-20 03:34:00,SystemResetWarning,0834.0,5.01,000.00,028.6,024.7,000.0,036.9,030.2,11.9,0000.0,0004.63,0001.03,0000.63
2023-10-20 03:35:00,SystemResetWarning,0833.9,5.00,000.00,028.5,024.6,000.0,036.9,030.0,11.9,0000.0,0007.05,0001.10,0000.64
2023-10-20 03:36:00,SystemResetWarning,0833.9,5.01,000.00,028.4,024.8,000.0,036.9,029.8,12.0,0000.0,0007.55,0001.17,0000.67
2023-10-20 03:37:00,SystemResetWarning,0833.9,5.00,000.00,028.3,025.2,000.0,036.9,029.8,12.0,0000.0,0007.72,0001.27,0000.69
2023-10-20 03:38:00,SystemResetWarning,0834.0,4.99,000.00,028.3,025.5,000.0,036.9,029.9,12.0,0000.0,0008.17,0001.32,0000.71
2023-10-20 03:39:00,SystemResetWarning,0833.9,5.00,000.00,028.3,025.9,000.0,036.9,029.9,12.0,0000.0,0008.02,0001.35,0000.72
2023-10-20 03:40:00,SystemResetWarning,0833.9,5.01,000.00,028.3,026.2,000.0,036.9,030.0,11.8,0000.0,0007.86,0001.39,0000.73
2023-10-20 03:41:00,SystemResetWarning,0834.0,5.00,000.00,028.3,026.4,000.0,036.9,030.0,11.8,0000.0,0007.86,0001.41,0000.74
2023-10-20 03:42:00,SystemResetWarning,0834.0,5.00,000.00,028.3,026.6,000.0,036.9,030.1,11.7,0000.0,0007.86,0001.44,0000.74
2023-10-20 03:43:00,SystemResetWarning,0834.0,5.00,000.00,028.4,026.8,000.0,036.8,030.1,11.7,0000.0,0007.95,0001.51,0000.75
2023-10-20 03:44:00,SystemResetWarning,0834.0,4.99,000.00,028.4,027.0,000.0,036.8,030.1,11.8,0000.0,0007.86,0001.57,0000.75
2023-10-20 03:45:00,SystemResetWarning,0833.9,4.99,000.00,028.4,027.1,000.0,036.9,030.2,11.8,0000.0,0008.21,0001.58,0000.75
2023-10-20 03:46:00,SystemResetWarning,0834.0,5.00,000.00,028.5,027.2,000.0,036.9,030.2,11.8,0000.0,0007.19,0001.54,0000.75
2023-10-20 03:47:00,SystemResetWarning,0834.0,5.01,000.00,028.5,027.3,000.0,036.9,030.2,11.7,0000.0,0007.52,0001.58,0000.75
2023-10-20 03:48:00,SystemResetWarning,0834.0,5.01,000.00,028.5,027.4,000.0,036.9,030.3,11.7,0000.0,0007.92,0001.52,0000.74
2023-10-20 03:49:00,SystemResetWarning,0834.0,4.98,000.00,028.6,027.4,000.0,036.9,030.3,11.6,0000.0,0007.63,0001.58,0000.75
2023-10-20 03:50:00,SystemResetWarning,0833.9,5.00,000.00,028.6,027.5,000.0,036.9,030.3,11.5,0000.0,0007.83,0001.62,0000.75
2023-10-20 03:51:00,SystemResetWarning,0833.9,5.00,000.00,028.6,027.6,000.0,037.0,030.4,11.5,0000.0,0008.20,0001.59,0000.75
2023-10-20 03:52:00,SystemResetWarning,0833.9,5.00,000.00,028.7,027.6,000.0,037.0,030.4,11.7,0000.0,0008.59,0001.58,0000.75
2023-10-20 03:53:00,SystemResetWarning,0834.0,5.00,000.00,028.7,027.6,000.0,037.0,030.4,11.6,0000.0,0009.54,0001.65,0000.77
2023-10-20 03:54:00,SystemResetWarning,0833.9,5.01,000.00,028.7,027.7,000.0,037.0,030.5,11.6,0000.0,0010.06,0001.72,0000.80
2023-10-20 03:55:00,SystemResetWarning,0834.0,5.00,000.00,028.7,027.7,000.0,037.1,030.5,11.6,0000.0,0009.87,0001.79,0000.84
2023-10-20 03:56:00,SystemResetWarning,0834.0,5.00,000.00,028.8,027.7,000.0,037.1,030.5,11.5,0000.0,0009.74,0001.89,0000.87
2023-10-20 03:57:00,SystemResetWarning,0833.9,4.99,000.00,028.8,026.3,000.0,037.1,030.5,11.5,0000.0,0009.49,0001.96,0000.90
2023-10-20 03:58:00,SystemResetWarning,0833.8,5.01,000.00,028.7,024.8,000.0,037.0,030.2,11.5,0000.0,0009.27,0002.00,0000.94
2023-10-20 03:59:00,SystemResetWarning,0833.9,5.00,000.00,028.6,024.6,000.0,036.9,030.1,11.6,0000.0,0009.38,0002.10,0000.98
